QPF
0.03 0.02 0.01 0.01 0.01 0.01 0.02 0.02 0.03 0.02 0.02 0.03 0.03 0.05 0.06 0.08 0.09 0.09 0.09 0.10 0.08 0.05 0.04 0.04 0.04 0.03 0.03 0.03 0.04 0.05 0.05 0.05 0.03 0.02 0.01 0.02 0.02 0.02 0.02 0.03 0.05 0.07 0.09
0.03 0.02 0.02 0.02 0.02 0.03 0.02 0.03 0.03 0.03 0.03 0.04 0.05 0.06 0.08 0.09 0.08 0.07 0.08 0.08 0.05 0.05 0.06 0.06 0.05 0.04 0.03 0.03 0.04 0.03 0.04 0.04 0.03 0.02 0.01 0.02 0.02 0.02 0.03 0.03 0.05 0.08 0.11
0.05 0.04 0.04 0.03 0.04 0.05 0.05 0.05 0.04 0.04 0.05 0.05 0.06 0.06 0.08 0.08 0.07 0.07 0.07 0.08 0.08 0.08 0.07 0.06 0.06 0.04 0.04 0.03 0.03 0.02 0.02 0.03 0.02 0.02 0.01 0.02 0.02 0.03 0.03 0.04 0.04 0.05 0.06
0.04 0.04 0.05 0.05 0.04 0.04 0.05 0.07 0.07 0.06 0.04 0.04 0.05 0.06 0.08 0.10 0.09 0.10 0.08 0.07 0.06 0.05 0.04 0.04 0.05 0.05 0.04 0.04 0.04 0.03 0.03 0.03 0.03 0.02 0.02 0.03 0.02 0.03 0.03 0.03 0.03 0.04 0.05
0.04 0.05 0.06 0.08 0.08 0.09 0.09 0.08 0.10 0.10 0.07 0.07 0.07 0.07 0.09 0.10 0.10 0.09 0.07 0.06 0.06 0.05 0.05 0.05 0.04 0.04 0.05 0.06 0.06 0.06 0.06 0.05 0.04 0.04 0.03 0.03 0.03 0.03 0.03 0.03 0.03 0.03 0.03
0.03 0.04 0.06 0.08 0.10 0.12 0.14 0.17 0.19 0.15 0.10 0.08 0.09 0.09 0.10 0.08 0.08 0.08 0.08 0.06 0.05 0.05 0.06 0.05 0.04 0.04 0.04 0.04 0.04 0.05 0.05 0.04 0.05 0.05 0.04 0.03 0.02 0.02 0.03 0.04 0.03 0.02 0.02
0.02 0.03 0.04 0.06 0.07 0.07 0.10 0.13 0.13 0.09 0.06 0.05 0.07 0.07 0.07 0.07 0.08 0.11 0.09 0.06 0.06 0.05 0.06 0.07 0.06 0.05 0.05 0.03 0.04 0.05 0.05 0.05 0.05 0.04 0.04 0.03 0.03 0.02 0.03 0.04 0.04 0.03 0.03
0.03 0.04 0.05 0.06 0.07 0.07 0.07 0.07 0.08 0.05 0.04 0.04 0.05 0.05 0.06 0.06 0.07 0.08 0.08 0.07 0.08 0.08 0.08 0.07 0.05 0.05 0.05 0.04 0.04 0.04 0.04 0.04 0.03 0.02 0.01 0.02 0.02 0.02 0.02 0.02 0.02 0.02 0.02
0.04 0.06 0.07 0.07 0.08 0.08 0.09 0.10 0.09 0.07 0.06 0.06 0.07 0.07 0.06 0.08 0.09 0.08 0.08 0.07 0.07 0.06 0.06 0.05 0.04 0.03 0.03 0.03 0.02 0.01 0.01 0.01 0.02 0.01 0.01 0.01 0.01 0.01 0.02 0.02 0.02 0.02 0.02
0.08 0.07 0.06 0.06 0.06 0.05 0.06 0.09 0.08 0.07 0.07 0.06 0.06 0.06 0.07 0.07 0.08 0.08 0.08 0.06 0.06 0.06 0.06 0.05 0.04 0.03 0.02 0.02 0.01 0.01 0.01 0.01 0.01 0.01 0.01 0.00 0.01 0.01 0.01 0.01 0.02 0.02 0.02
0.15 0.12 0.06 0.04 0.03 0.03 0.05 0.06 0.05 0.05 0.05 0.05 0.05 0.05 0.05 0.07 0.08 0.10 0.12 0.12 0.12 0.08 0.06 0.05 0.04 0.03 0.02 0.01 0.00 0.00 0.00 0.00 0.00 0.00 0.00 0.00 0.00 0.00 0.01 0.01 0.01 0.01 0.01
0.04 0.04 0.03 0.02 0.02 0.03 0.03 0.04 0.04 0.04 0.04 0.03 0.03 0.04 0.05 0.08 0.11 0.12 0.11 0.09 0.08 0.06 0.04 0.03 0.02 0.01 0.01 0.00 0.00 0.00 0.00 0.00 0.00 0.00 0.00 0.00 0.00 0.00 0.00 0.01 0.00 0.00 0.01
0.02 0.01 0.02 0.02 0.02 0.02 0.02 0.02 0.03 0.03 0.04 0.04 0.04 0.06 0.08 0.09 0.11 0.10 0.06 0.04 0.03 0.03 0.02 0.01 0.01 0.01 0.01 0.01 0.01 0.00 0.01 0.01 0.00 0.00 0.00 0.00 0.00 0.00 0.00 0.01 0.01 0.01 0.01
0.02 0.02 0.02 0.02 0.01 0.01 0.01 0.02 0.03 0.03 0.04 0.05 0.06 0.06 0.07 0.07 0.06 0.03 0.03 0.02 0.02 0.02 0.01 0.02 0.01 0.01 0.01 0.01 0.01 0.01 0.01 0.01 0.01 0.00 0.00 0.00 0.01 0.01 0.01 0.01 0.01 0.01 0.01
0.01 0.01 0.01 0.02 0.02 0.02 0.02 0.03 0.03 0.03 0.04 0.04 0.05 0.05 0.05 0.04 0.04 0.03 0.02 0.02 0.02 0.02 0.02 0.01 0.01 0.01 0.01 0.00 0.00 0.00 0.01 0.00 0.00 0.00 0.00 0.01 0.01 0.02 0.01 0.02 0.02 0.02 0.02
0.01 0.01 0.01 0.01 0.02 0.02 0.03 0.03 0.04 0.05 0.05 0.05 0.06 0.05 0.05 0.05 0.04 0.04 0.03 0.03 0.02 0.02 0.01 0.01 0.01 0.01 0.01 0.01 0.01 0.00 0.00 0.00 0.00 0.00 0.00 0.01 0.01 0.01 0.01 0.02 0.01 0.01 0.01
0.01 0.01 0.01 0.02 0.02 0.02 0.02 0.03 0.04 0.05 0.05 0.05 0.05 0.05 0.05 0.06 0.06 0.06 0.05 0.04 0.04 0.02 0.01 0.01 0.01 0.01 0.01 0.00 0.00 0.00 0.00 0.00 0.00 0.00 0.01 0.01 0.01 0.01 0.01 0.01 0.01 0.01 0.01
0.01 0.01 0.01 0.02 0.02 0.02 0.03 0.04 0.05 0.05 0.05 0.05 0.05 0.05 0.05 0.05 0.05 0.06 0.07 0.06 0.04 0.04 0.02 0.02 0.02 0.02 0.01 0.01 0.01 0.01 0.00 0.00 0.00 0.01 0.01 0.01 0.01 0.01 0.01 0.01 0.02 0.02 0.02
0.01 0.01 0.01 0.02 0.02 0.03 0.04 0.04 0.05 0.05 0.05 0.05 0.04 0.05 0.06 0.05 0.05 0.05 0.04 0.04 0.05 0.05 0.05 0.05 0.04 0.03 0.02 0.01 0.01 0.01 0.00 0.00 0.00 0.01 0.01 0.01 0.01 0.02 0.02 0.02 0.02 0.02 0.02
0.01 0.01 0.01 0.02 0.02 0.03 0.04 0.04 0.04 0.04 0.05 0.04 0.03 0.03 0.03 0.03 0.02 0.03 0.03 0.02 0.02 0.03 0.03 0.03 0.03 0.03 0.02 0.01 0.01 0.00 0.00 0.00 0.00 0.01 0.01 0.01 0.01 0.02 0.03 0.03 0.02 0.02 0.02
0.01 0.02 0.02 0.02 0.03 0.03 0.03 0.03 0.04 0.03 0.03 0.03 0.03 0.02 0.02 0.01 0.02 0.02 0.02 0.01 0.01 0.01 0.01 0.02 0.02 0.02 0.01 0.01 0.01 0.01 0.00 0.01 0.01 0.01 0.01 0.01 0.01 0.01 0.01 0.01 0.02 0.02 0.01
0.01 0.01 0.01 0.01 0.01 0.02 0.02 0.02 0.03 0.04 0.03 0.03 0.02 0.02 0.02 0.02 0.02 0.02 0.02 0.02 0.01 0.01 0.02 0.01 0.01 0.01 0.01 0.01 0.01 0.01 0.01 0.01 0.01 0.01 0.01 0.00 0.00 0.00 0.00 0.01 0.01 0.01 0.01
0.01 0.01 0.01 0.01 0.01 0.01 0.01 0.01 0.01 0.02 0.01 0.01 0.02 0.02 0.02 0.02 0.02 0.01 0.01 0.01 0.01 0.01 0.02 0.02 0.02 0.02 0.02 0.01 0.01 0.01 0.01 0.01 0.01 0.01 0.01 0.01 0.00 0.00 0.00 0.00 0.00 0.01 0.01
0.00 0.00 0.00 0.00 0.01 0.01 0.01 0.01 0.01 0.01 0.01 0.02 0.02 0.03 0.03 0.02 0.01 0.01 0.01 0.01 0.01 0.01 0.01 0.01 0.01 0.01 0.01 0.01 0.01 0.01 0.00 0.01 0.01 0.01 0.01 0.00 0.00 0.00 0.00 0.00 0.00 0.00 0.01
0.00 0.00 0.01 0.01 0.01 0.01 0.01 0.01 0.01 0.01 0.01 0.01 0.02 0.02 0.02 0.01 0.01 0.01 0.00 0.00 0.00 0.00 0.01 0.01 0.01 0.01 0.01 0.01 0.01 0.01 0.01 0.01 0.00 0.00 0.00 0.00 0.00 0.00 0.00 0.00 0.00 0.00 0.01
0.01 0.01 0.01 0.01 0.02 0.02 0.01 0.01 0.01 0.01 0.01 0.01 0.01 0.01 0.01 0.01 0.01 0.01 0.00 0.00 0.00 0.00 0.00 0.00 0.00 0.00 0.00 0.00 0.00 0.00 0.00 0.00 0.00 0.00 0.00 0.00 0.00 0.00 0.00 0.01 0.01 0.01 0.01
MSLP
1012.08 1012.73 1013.35 1013.89 1014.29 1014.53 1014.65 1014.68 1014.68 1014.70 1014.77 1014.93 1015.15 1015.41 1015.67 1015.90 1016.06 1016.16 1016.20 1016.22 1016.23 1016.29 1016.40 1016.56 1016.76 1016.97 1017.15 1017.27 1017.30 1017.25 1017.12 1016.92 1016.69 1016.44 1016.19 1015.97 1015.76 1015.57 1015.40 1015.26 1015.16 1015.12 1015.16
1011.41 1012.07 1012.71 1013.25 1013.66 1013.92 1014.06 1014.10 1014.11 1014.12 1014.19 1014.32 1014.52 1014.75 1014.99 1015.21 1015.38 1015.49 1015.55 1015.59 1015.62 1015.67 1015.76 1015.88 1016.02 1016.17 1016.30 1016.38 1016.40 1016.36 1016.27 1016.14 1015.98 1015.81 1015.64 1015.46 1015.28 1015.09 1014.90 1014.71 1014.55 1014.44 1014.41
1010.78 1011.44 1012.07 1012.61 1013.03 1013.31 1013.47 1013.54 1013.57 1013.61 1013.68 1013.80 1013.99 1014.20 1014.42 1014.63 1014.80 1014.92 1015.00 1015.05 1015.09 1015.14 1015.21 1015.29 1015.38 1015.47 1015.54 1015.57 1015.57 1015.53 1015.47 1015.38 1015.29 1015.19 1015.09 1014.96 1014.82 1014.64 1014.44 1014.23 1014.02 1013.86 1013.78
1010.17 1010.81 1011.42 1011.95 1012.37 1012.67 1012.87 1012.99 1013.06 1013.14 1013.24 1013.39 1013.57 1013.78 1013.99 1014.18 1014.34 1014.46 1014.54 1014.60 1014.64 1014.68 1014.72 1014.77 1014.82 1014.85 1014.87 1014.86 1014.83 1014.78 1014.73 1014.67 1014.62 1014.58 1014.52 1014.45 1014.33 1014.18 1013.98 1013.76 1013.53 1013.33 1013.21
1009.58 1010.18 1010.76 1011.27 1011.69 1012.01 1012.25 1012.43 1012.57 1012.72 1012.88 1013.07 1013.27 1013.48 1013.68 1013.85 1013.99 1014.08 1014.15 1014.19 1014.22 1014.24 1014.27 1014.29 1014.31 1014.30 1014.28 1014.24 1014.18 1014.12 1014.06 1014.01 1013.98 1013.96 1013.94 1013.89 1013.80 1013.67 1013.48 1013.25 1013.01 1012.79 1012.64
1009.03 1009.58 1010.10 1010.58 1010.99 1011.33 1011.61 1011.86 1012.10 1012.33 1012.57 1012.82 1013.06 1013.27 1013.46 1013.60 1013.69 1013.75 1013.77 1013.78 1013.78 1013.79 1013.80 1013.81 1013.80 1013.79 1013.74 1013.68 1013.60 1013.53 1013.46 1013.40 1013.37 1013.35 1013.33 1013.29 1013.21 1013.08 1012.90 1012.67 1012.43 1012.19 1012.01
1008.55 1009.02 1009.48 1009.91 1010.30 1010.65 1010.99 1011.31 1011.64 1011.98 1012.31 1012.62 1012.90 1013.13 1013.29 1013.39 1013.42 1013.41 1013.38 1013.34 1013.31 1013.29 1013.29 1013.30 1013.30 1013.28 1013.24 1013.18 1013.10 1013.01 1012.92 1012.84 1012.79 1012.75 1012.71 1012.65 1012.56 1012.42 1012.23 1012.00 1011.75 1011.50 1011.31
1008.18 1008.57 1008.95 1009.32 1009.68 1010.04 1010.42 1010.83 1011.25 1011.68 1012.10 1012.48 1012.79 1013.02 1013.15 1013.19 1013.16 1013.07 1012.97 1012.87 1012.79 1012.75 1012.75 1012.77 1012.79 1012.79 1012.78 1012.73 1012.65 1012.55 1012.45 1012.34 1012.25 1012.17 1012.08 1011.98 1011.86 1011.69 1011.48 1011.24 1010.98 1010.72 1010.51
1007.96 1008.28 1008.58 1008.88 1009.21 1009.57 1009.98 1010.45 1010.95 1011.46 1011.96 1012.39 1012.73 1012.94 1013.04 1013.02 1012.91 1012.74 1012.56 1012.40 1012.28 1012.23 1012.22 1012.26 1012.31 1012.35 1012.37 1012.34 1012.27 1012.17 1012.04 1011.90 1011.76 1011.61 1011.47 1011.31 1011.14 1010.93 1010.69 1010.43 1010.15 1009.88 1009.66
1007.93 1008.17 1008.40 1008.64 1008.93 1009.28 1009.71 1010.22 1010.78 1011.35 1011.89 1012.35 1012.70 1012.90 1012.95 1012.87 1012.68 1012.45 1012.20 1011.98 1011.83 1011.76 1011.76 1011.82 1011.90 1011.98 1012.02 1012.02 1011.96 1011.84 1011.69 1011.50 1011.30 1011.10 1010.88 1010.66 1010.43 1010.17 1009.90 1009.61 1009.31 1009.04 1008.81
1008.07 1008.26 1008.43 1008.63 1008.88 1009.21 1009.64 1010.16 1010.74 1011.34 1011.90 1012.37 1012.70 1012.87 1012.88 1012.75 1012.51 1012.21 1011.92 1011.67 1011.49 1011.41 1011.42 1011.49 1011.59 1011.69 1011.76 1011.76 1011.70 1011.56 1011.37 1011.14 1010.88 1010.60 1010.32 1010.04 1009.75 1009.45 1009.14 1008.83 1008.52 1008.24 1008.01
1008.36 1008.52 1008.66 1008.82 1009.04 1009.35 1009.76 1010.27 1010.84 1011.43 1011.97 1012.42 1012.72 1012.86 1012.83 1012.66 1012.38 1012.05 1011.73 1011.46 1011.28 1011.19 1011.20 1011.28 1011.39 1011.49 1011.55 1011.54 1011.45 1011.29 1011.05 1010.77 1010.45 1010.11 1009.78 1009.44 1009.11 1008.77 1008.44 1008.11 1007.80 1007.52 1007.29
1008.75 1008.91 1009.04 1009.18 1009.36 1009.64 1010.02 1010.49 1011.02 1011.56 1012.06 1012.46 1012.72 1012.82 1012.76 1012.56 1012.27 1011.94 1011.62 1011.35 1011.17 1011.09 1011.10 1011.16 1011.26 1011.34 1011.37 1011.32 1011.19 1010.98 1010.69 1010.36 1009.99 1009.61 1009.23 1008.87 1008.51 1008.16 1007.82 1007.49 1007.18 1006.91 1006.68
1009.17 1009.36 1009.50 1009.63 1009.79 1010.03 1010.36 1010.77 1011.22 1011.69 1012.11 1012.45 1012.66 1012.72 1012.64 1012.43 1012.15 1011.84 1011.54 1011.29 1011.13 1011.05 1011.05 1011.09 1011.14 1011.18 1011.15 1011.05 1010.86 1010.60 1010.26 1009.88 1009.48 1009.08 1008.68 1008.30 1007.94 1007.60 1007.26 1006.95 1006.65 1006.39 1006.17
1009.59 1009.82 1009.98 1010.11 1010.26 1010.45 1010.71 1011.04 1011.40 1011.77 1012.10 1012.36 1012.50 1012.52 1012.43 1012.23 1011.98 1011.70 1011.44 1011.23 1011.08 1011.00 1010.98 1010.99 1010.99 1010.95 1010.86 1010.69 1010.43 1010.11 1009.74 1009.33 1008.91 1008.51 1008.12 1007.75 1007.41 1007.09 1006.78 1006.48 1006.20 1005.95 1005.74
1009.95 1010.23 1010.42 1010.55 1010.68 1010.83 1011.02 1011.25 1011.51 1011.77 1011.99 1012.16 1012.24 1012.22 1012.12 1011.95 1011.73 1011.50 1011.28 1011.11 1010.98 1010.90 1010.84 1010.80 1010.73 1010.62 1010.45 1010.20 1009.89 1009.52 1009.12 1008.70 1008.29 1007.90 1007.54 1007.21 1006.91 1006.62 1006.34 1006.07 1005.80 1005.56 1005.35
1010.25 1010.57 1010.78 1010.93 1011.03 1011.14 1011.25 1011.39 1011.53 1011.68 1011.80 1011.87 1011.89 1011.84 1011.73 1011.58 1011.40 1011.21 1011.04 1010.90 1010.78 1010.69 1010.60 1010.49 1010.36 1010.17 1009.92 1009.61 1009.25 1008.85 1008.43 1008.02 1007.64 1007.28 1006.97 1006.69 1006.43 1006.18 1005.93 1005.68 1005.43 1005.19 1004.98
1010.48 1010.82 1011.05 1011.19 1011.28 1011.34 1011.39 1011.44 1011.48 1011.52 1011.55 1011.54 1011.50 1011.42 1011.31 1011.17 1011.02 1010.87 1010.73 1010.61 1010.49 1010.37 1010.24 1010.08 1009.87 1009.61 1009.29 1008.93 1008.53 1008.12 1007.71 1007.32 1006.98 1006.67 1006.41 1006.17 1005.96 1005.74 1005.52 1005.29 1005.05 1004.80 1004.57
1010.61 1010.97 1011.20 1011.35 1011.42 1011.44 1011.43 1011.41 1011.38 1011.33 1011.27 1011.20 1011.12 1011.01 1010.89 1010.77 1010.64 1010.51 1010.39 1010.26 1010.13 1009.97 1009.79 1009.57 1009.29 1008.97 1008.60 1008.20 1007.78 1007.37 1006.98 1006.63 1006.33 1006.07 1005.85 1005.66 1005.48 1005.30 1005.10 1004.87 1004.63 1004.37 1004.13
1010.64 1010.99 1011.22 1011.36 1011.42 1011.43 1011.39 1011.31 1011.23 1011.13 1011.02 1010.90 1010.78 1010.65 1010.53 1010.40 1010.28 1010.15 1010.03 1009.88 1009.72 1009.52 1009.28 1009.00 1008.67 1008.29 1007.88 1007.45 1007.03 1006.63 1006.27 1005.95 1005.69 1005.47 1005.29 1005.14 1004.98 1004.81 1004.62 1004.39 1004.14 1003.88 1003.62
1010.54 1010.87 1011.10 1011.24 1011.30 1011.30 1011.25 1011.16 1011.05 1010.92 1010.78 1010.64 1010.50 1010.36 1010.23 1010.10 1009.97 1009.83 1009.68 1009.50 1009.29 1009.04 1008.74 1008.40 1008.01 1007.59 1007.15 1006.71 1006.29 1005.90 1005.57 1005.28 1005.05 1004.86 1004.71 1004.57 1004.42 1004.25 1004.05 1003.83 1003.57 1003.30 1003.04
1010.28 1010.59 1010.82 1010.97 1011.04 1011.05 1011.02 1010.94 1010.83 1010.70 1010.56 1010.42 1010.27 1010.13 1009.99 1009.84 1009.69 1009.53 1009.34 1009.11 1008.85 1008.54 1008.19 1007.79 1007.35 1006.89 1006.43 1005.98 1005.57 1005.19 1004.87 1004.61 1004.39 1004.22 1004.07 1003.93 1003.77 1003.60 1003.39 1003.16 1002.90 1002.64 1002.38
1009.88 1010.17 1010.40 1010.56 1010.66 1010.71 1010.70 1010.65 1010.56 1010.46 1010.33 1010.20 1010.06 1009.91 1009.76 1009.60 1009.43 1009.23 1008.99 1008.71 1008.39 1008.03 1007.61 1007.17 1006.69 1006.21 1005.73 1005.27 1004.86 1004.49 1004.18 1003.92 1003.71 1003.53 1003.37 1003.21 1003.04 1002.84 1002.63 1002.39 1002.14 1001.89 1001.66
1009.37 1009.65 1009.89 1010.07 1010.20 1010.28 1010.31 1010.30 1010.25 1010.17 1010.07 1009.95 1009.82 1009.67 1009.51 1009.33 1009.13 1008.89 1008.61 1008.28 1007.91 1007.49 1007.04 1006.55 1006.04 1005.54 1005.05 1004.59 1004.17 1003.81 1003.49 1003.23 1003.00 1002.80 1002.61 1002.42 1002.23 1002.01 1001.78 1001.55 1001.31 1001.08 1000.88
1008.81 1009.09 1009.34 1009.54 1009.70 1009.81 1009.88 1009.90 1009.88 1009.83 1009.75 1009.65 1009.52 1009.37 1009.20 1009.00 1008.77 1008.50 1008.18 1007.82 1007.41 1006.95 1006.46 1005.95 1005.42 1004.91 1004.41 1003.95 1003.53 1003.15 1002.83 1002.54 1002.29 1002.05 1001.83 1001.61 1001.38 1001.14 1000.90 1000.66 1000.43 1000.23 1000.06
1008.30 1008.58 1008.83 1009.06 1009.23 1009.37 1009.45 1009.49 1009.49 1009.45 1009.38 1009.28 1009.16 1009.00 1008.82 1008.61 1008.35 1008.06 1007.72 1007.33 1006.89 1006.42 1005.91 1005.39 1004.86 1004.34 1003.85 1003.38 1002.96 1002.57 1002.23 1001.91 1001.62 1001.35 1001.08 1000.82 1000.55 1000.29 1000.03 999.79 999.57 999.39 999.25
Thickness
5772 5770 5768 5766 5764 5762 5759 5757 5756 5754 5752 5750 5748 5746 5744 5741 5740 5737 5734 5731 5729 5727 5725 5724 5722 5721 5719 5719 5717 5715 5712 5709 5702 5700 5698 5696 5695 5693 5692 5691 5690 5688 5686
5771 5769 5766 5765 5762 5760 5757 5756 5754 5752 5750 5748 5745 5743 5741 5738 5736 5733 5731 5729 5726 5724 5722 5721 5719 5718 5716 5714 5713 5710 5708 5705 5701 5695 5693 5690 5688 5687 5685 5684 5683 5681 5679
5769 5766 5763 5761 5758 5756 5755 5753 5752 5750 5748 5745 5741 5738 5736 5734 5732 5730 5728 5725 5723 5721 5719 5717 5716 5714 5711 5710 5708 5705 5703 5700 5697 5692 5688 5684 5682 5680 5678 5677 5675 5672 5671
5768 5764 5761 5758 5756 5754 5752 5751 5749 5746 5742 5740 5737 5735 5733 5730 5728 5727 5724 5722 5719 5717 5715 5713 5711 5709 5707 5705 5702 5699 5697 5693 5690 5686 5682 5678 5675 5673 5670 5668 5666 5664 5662
5764 5761 5758 5756 5753 5751 5749 5747 5744 5740 5737 5736 5734 5731 5728 5726 5724 5721 5719 5716 5713 5710 5708 5706 5705 5703 5701 5699 5697 5693 5690 5686 5682 5679 5675 5672 5668 5665 5663 5660 5657 5654 5652
5761 5757 5754 5752 5749 5746 5744 5741 5738 5735 5733 5731 5728 5725 5723 5721 5718 5715 5713 5710 5707 5704 5702 5700 5698 5696 5694 5691 5689 5687 5684 5680 5676 5673 5669 5665 5662 5659 5656 5653 5649 5647 5644
5756 5753 5750 5747 5744 5742 5740 5737 5734 5730 5727 5725 5722 5719 5717 5714 5712 5710 5707 5704 5701 5698 5696 5693 5691 5689 5686 5684 5681 5679 5676 5673 5671 5667 5663 5659 5656 5653 5650 5646 5642 5638 5635
5750 5747 5745 5742 5739 5737 5735 5732 5729 5725 5721 5718 5716 5713 5711 5708 5706 5705 5702 5699 5694 5691 5689 5686 5683 5680 5678 5676 5673 5670 5666 5664 5662 5660 5657 5654 5651 5647 5644 5640 5635 5630 5626
5743 5740 5738 5737 5734 5731 5729 5726 5723 5719 5715 5712 5709 5707 5704 5702 5700 5698 5696 5692 5686 5683 5681 5678 5675 5672 5670 5668 5665 5661 5658 5655 5653 5651 5648 5645 5642 5639 5636 5632 5626 5623 5618
5736 5734 5732 5730 5728 5725 5722 5719 5716 5713 5709 5706 5703 5700 5697 5695 5692 5691 5688 5684 5679 5675 5672 5669 5666 5664 5661 5659 5656 5653 5649 5646 5644 5642 5639 5636 5633 5629 5626 5623 5619 5614 5610
5729 5726 5725 5724 5722 5719 5716 5713 5710 5706 5702 5699 5695 5692 5690 5687 5685 5682 5679 5676 5671 5667 5663 5660 5657 5655 5653 5650 5647 5645 5641 5638 5635 5632 5629 5626 5622 5619 5615 5612 5608 5605 5601
5722 5719 5717 5716 5714 5712 5709 5706 5702 5699 5695 5691 5688 5684 5681 5678 5676 5673 5670 5666 5663 5659 5654 5651 5649 5647 5644 5641 5638 5635 5633 5630 5627 5623 5619 5615 5612 5608 5605 5601 5598 5595 5591
5714 5711 5708 5706 5704 5702 5700 5696 5693 5690 5688 5684 5680 5676 5672 5669 5666 5664 5660 5657 5653 5650 5646 5643 5641 5639 5636 5633 5630 5627 5624 5621 5617 5613 5609 5604 5601 5597 5594 5592 5589 5585 5582
5705 5701 5698 5696 5693 5691 5689 5687 5684 5681 5679 5676 5672 5668 5664 5661 5657 5654 5651 5648 5644 5641 5637 5635 5632 5630 5627 5624 5621 5617 5614 5610 5606 5602 5598 5594 5591 5588 5585 5581 5578 5575 5572
5695 5691 5688 5686 5684 5680 5678 5674 5673 5670 5669 5667 5664 5660 5657 5653 5649 5646 5643 5640 5636 5633 5629 5626 5623 5620 5617 5613 5610 5606 5603 5599 5596 5592 5588 5585 5582 5579 5575 5571 5567 5564 5561
5685 5682 5679 5676 5673 5671 5668 5664 5661 5660 5659 5657 5655 5652 5648 5645 5641 5638 5634 5632 5628 5625 5621 5617 5613 5610 5606 5603 5599 5596 5592 5588 5585 5582 5578 5575 5572 5569 5565 5561 5558 5554 5551
5677 5674 5671 5668 5665 5662 5659 5656 5652 5649 5647 5645 5643 5641 5639 5635 5632 5629 5626 5621 5618 5616 5612 5607 5603 5599 5596 5592 5589 5585 5582 5578 5575 5572 5569 5565 5562 5559 5555 5552 5549 5545 5542
5669 5666 5663 5660 5657 5654 5652 5649 5646 5642 5638 5635 5632 5630 5628 5625 5622 5619 5616 5613 5608 5605 5601 5598 5594 5590 5586 5583 5579 5575 5572 5569 5566 5563 5559 5556 5553 5549 5546 5542 5539 5536 5533
5661 5658 5655 5651 5648 5645 5643 5640 5637 5634 5630 5626 5623 5620 5617 5614 5611 5609 5606 5604 5599 5595 5592 5588 5584 5581 5577 5574 5570 5566 5563 5560 5557 5554 5551 5547 5544 5540 5537 5534 5531 5526 5524
5652 5650 5647 5643 5640 5637 5634 5631 5628 5625 5621 5618 5614 5611 5609 5607 5603 5599 5596 5593 5590 5586 5582 5579 5575 5572 5568 5565 5561 5558 5555 5551 5548 5545 5542 5539 5535 5532 5529 5526 5523 5520 5517
5644 5642 5639 5635 5632 5629 5626 5623 5620 5617 5613 5610 5606 5603 5601 5599 5596 5592 5588 5584 5581 5577 5574 5571 5567 5563 5560 5556 5553 5550 5546 5543 5539 5536 5534 5530 5527 5524 5521 5518 5515 5513 5510
5636 5634 5631 5628 5625 5622 5618 5614 5611 5608 5606 5602 5598 5595 5592 5590 5587 5583 5579 5575 5572 5568 5565 5562 5559 5555 5551 5548 5545 5542 5539 5535 5532 5528 5525 5522 5519 5516 5513 5511 5508 5505 5503
5629 5626 5623 5620 5617 5614 5610 5607 5604 5601 5597 5594 5591 5587 5584 5581 5578 5575 5571 5567 5564 5560 5557 5554 5550 5547 5543 5540 5537 5533 5530 5528 5524 5521 5517 5514 5511 5508 5506 5503 5500 5498 5495
5621 5618 5615 5612 5609 5606 5602 5599 5595 5592 5589 5586 5582 5579 5575 5572 5569 5566 5562 5559 5556 5552 5549 5545 5542 5539 5535 5532 5529 5526 5523 5520 5517 5514 5510 5507 5504 5501 5498 5495 5493 5490 5488
5614 5611 5608 5604 5601 5598 5594 5591 5588 5584 5581 5578 5574 5571 5567 5564 5560 5557 5553 5550 5547 5543 5540 5537 5533 5530 5527 5524 5522 5519 5516 5513 5509 5506 5502 5499 5497 5493 5490 5488 5485 5483 5481
5606 5603 5600 5597 5594 5590 5587 5584 5580 5577 5573 5570 5566 5563 5559 5556 5552 5549 5545 5541 5538 5534 5531 5528 5525 5522 5519 5516 5514 5511 5509 5505 5502 5499 5495 5492 5489 5486 5483 5480 5478 5476 5474